Location: Berlin
(42.3812°N, 71.6370°W)
Time: 11:38:48
(UTC+00:00)

Cosmos 1943 - Pass Details

Date: 19 February 2026
Orbit: 830 x 850 km, 71.0° (Epoch: 8 March)

Event Time Altitude Azimuth Distance (km) Brightness Sun altitude
Rises 01:14:26 0° 328° (NNW) 3,422 7.0 -32.2°
Reaches altitude 10° 01:17:01 10° 321° (NW) 2,481 6.2 -32.6°
Maximum altitude 01:22:16 40° 254° (WSW) 1,238 4.3 -33.5°
Enters shadow 01:22:44 39° 242° (WSW) 1,252 4.3 -33.6°
